Location: Unspecified
(53.5279°N, 0.0000°E)
Time: 00:18:12
(UTC+00:00)

OTV 5 (USA 277) - Visible Passes

Search period start: 21 June 2019 00:00
Search period end: 01 July 2019 00:00
Orbit: 310 x 325 km, 54.5° (Epoch: 08 May)

Date Brightness Start Highest point End Pass type
(mag) Time Alt. Az. Time Alt. Az. Time Alt. Az.
21 Jun ? 00:50:52 10° W 00:53:38 68° N 00:56:25 10° E visible
21 Jun ? 02:25:16 10° WNW 02:28:02 74° SSW 02:30:47 10° ESE visible
21 Jun ? 21:57:34 10° SSW 21:59:54 25° SSE 22:02:16 10° E visible
21 Jun ? 23:31:14 10° WSW 23:34:01 89° SSE 23:36:48 10° ENE visible
22 Jun ? 01:05:40 10° W 01:08:27 72° N 01:11:12 10° E visible
22 Jun ? 22:11:50 10° SW 22:14:30 44° SSE 22:17:11 10° E visible
22 Jun ? 23:46:00 10° W 23:48:47 72° N 23:51:33 10° E visible
23 Jun ? 01:20:26 10° WNW 01:23:13 89° SSW 01:25:59 10° ESE visible
23 Jun ? 22:26:25 10° WSW 22:29:12 74° SSE 22:31:59 10° ENE visible
24 Jun ? 00:00:49 10° W 00:03:35 68° N 00:06:22 10° E visible
24 Jun ? 01:35:12 10° WNW 01:37:57 58° SSW 01:40:39 10° ESE visible
24 Jun ? 22:41:10 10° W 22:43:57 79° N 22:46:44 10° ENE visible
25 Jun ? 00:15:36 10° WNW 00:18:23 79° NNE 00:21:09 10° E visible
25 Jun ? 01:50:02 10° W 01:52:35 33° SSW 01:55:06 10° SE visible
25 Jun ? 22:55:57 10° W 22:58:44 68° N 23:01:30 10° E visible
26 Jun ? 00:30:21 10° WNW 00:33:08 74° SSW 00:35:53 10° ESE visible
26 Jun ? 02:05:07 10° W 02:07:08 18° SW 02:09:07 10° S visible
26 Jun ? 21:36:20 10° WSW 21:39:06 89° SW 21:41:54 10° ENE visible
26 Jun ? 23:10:45 10° W 23:13:32 72° N 23:16:18 10° E visible
27 Jun ? 00:45:09 10° W 00:47:49 43° SSW 00:50:15 12° SE visible
27 Jun ? 21:51:06 10° W 21:53:54 72° N 21:56:40 10° E visible
27 Jun ? 23:25:31 10° WNW 23:28:19 89° S 23:31:05 10° ESE visible
28 Jun ? 01:00:05 10° W 01:02:25 24° SSW 01:02:31 24° SSW visible
28 Jun ? 22:05:54 10° W 22:08:41 68° N 22:11:27 10° E visible
28 Jun ? 23:40:17 10° WNW 23:43:02 57° SSW 23:44:43 20° SE visible
29 Jun ? 01:15:28 10° WSW 01:15:32 10° WSW 01:15:32 10° WSW visible
29 Jun ? 22:20:42 10° WNW 22:23:29 80° NNE 22:26:15 10° E visible
29 Jun ? 23:55:08 10° W 23:57:40 32° SSW 23:58:02 31° SSW visible
30 Jun ? 22:35:27 10° WNW 22:38:13 73° SSW 22:40:40 13° ESE visible
